User: anonymous   Login
Location: West Cummington
(42.4920°N, 72.9680°W)
Time: 21:34:32
(UTC-04:00)
Language:

Cosmos 841 Rocket - Orbit

View from above orbital plane
View from above orbital plane
View from above satellite
View from above satellite

Ground track
Ground track

The orbit data is extracted from the following two-line orbital elements,

1 09023U 76069B   15240.49085875  .00000094  00000-0  38600-4 0  9994
2 09023 074.0419 232.3042 0018133 204.6836 155.3453 14.39411479 50040
Epoch (UTC): 28 August 2015 11:46:50
Eccentricity: 0.0018133
inclination: 74.0419°
perigee height: 747 km
apogee height: 773 km
right ascension of ascending node: 232.3042°
argument of perigee: 204.6836°
revolutions per day: 14.39411479
mean anomaly at epoch: 155.3453°
orbit number at epoch: 5004

The dashed part of the orbit path shows where the satellite is in the earth's shadow,  

DLR